FW3958 Weather Reports


time (UTC)temp
C
wind
direction
speed
KPH
gust
KPH
rain 1hr
cm
rain 24hr
cm
rain mn
cm
humidity
%
barometer
mb
20260508041525 8 301 0.0 0.0 0.00 0.00 0.00 93 1020.6
20260508040023 8 301 0.0 0.0 0.00 0.00 0.00 93 1020.5
20260508034524 9 301 0.0 1.6 0.00 0.00 0.00 92 1020.5
20260508033025 9 301 0.0 1.6 0.00 0.00 0.00 89 1020.5
20260508031620 10 301 0.0 0.0 0.00 0.00 0.00 88 1020.5
20260508030020 10 301 0.0 3.2 0.00 0.00 0.00 87 1020.4
20260508024519 11 303 0.0 4.8 0.00 0.00 0.00 85 1020.3
20260508023021 11 294 1.6 8.0 0.00 0.00 0.00 82 1020.2
20260508021517 12 285 4.8 11.3 0.00 0.00 0.00 78 1020.3
20260508020016 13 297 4.8 9.7 0.00 0.00 0.00 79 1020.4
20260508014515 13 276 3.2 9.7 0.00 0.00 0.00 78 1020.4
20260508013013 13 297 4.8 11.3 0.00 0.00 0.00 78 1020.6
20260508011513 13 298 3.2 9.7 0.00 0.00 0.00 79 1020.8
20260508010012 13 295 4.8 12.9 0.00 0.00 0.00 76 1020.8
20260508004511 13 300 4.8 14.5 0.00 0.00 0.00 77 1020.9
20260508003110 13 296 4.8 11.3 0.00 0.00 0.00 76 1021.0
20260508001509 13 294 6.4 12.9 0.00 0.00 0.00 79 1021.0
20260508000008 13 302 8.0 12.9 0.00 0.00 0.00 77 1020.9
20260507234508 14 341 4.8 12.9 0.00 0.00 0.00 77 1020.9
20260507233001 13 325 8.0 12.9 0.00 0.00 0.00 76 1021.2
20260507231606 13 299 6.4 19.3 0.00 0.00 0.00 76 1021.4
20260507230101 14 297 4.8 16.1 0.00 0.00 0.00 76 1021.4
20260507224601 13 304 6.4 19.3 0.00 0.00 0.00 74 1021.6
20260507223100 14 319 8.0 17.7 0.00 0.00 0.00 75 1021.7
20260507221554 14 292 8.0 16.1 0.00 0.00 0.00 74 1021.8
20260507220053 14 275 8.0 16.1 0.00 0.00 0.00 76 1022.0
20260507214558 14 303 11.3 17.7 0.00 0.00 0.00 75 1022.1
20260507213051 15 305 12.9 16.1 0.00 0.00 0.00 75 1022.1
20260507211551 15 300 6.4 14.5 0.00 0.00 0.00 74 1021.9
20260507210050 15 14 8.0 14.5 0.00 0.00 0.00 76 1021.9
20260507204545 14 336 6.4 12.9 0.00 0.00 0.00 73 1022.1
20260507203049 14 312 4.8 16.1 0.00 0.00 0.00 74 1022.2
20260507201542 14 9 8.0 17.7 0.00 0.00 0.00 74 1022.3
20260507200048 14 277 4.8 16.1 0.00 0.00 0.00 73 1022.2
20260507194541 14 1 6.4 16.1 0.00 0.00 0.00 73 1022.3
20260507193036 14 336 4.8 14.5 0.00 0.00 0.00 73 1022.3
20260507191535 14 280 3.2 11.3 0.00 0.00 0.00 71 1022.4
20260507190033 14 248 1.6 6.4 0.00 0.00 0.00 72 1022.6
20260507184529 13 292 1.6 4.8 0.00 0.00 0.00 71 1022.8
20260507183036 13 355 4.8 11.3 0.00 0.00 0.00 73 1022.8
20260507181524 13 321 1.6 8.0 0.00 0.00 0.00 76 1023.1
20260507180036 12 311 0.0 11.3 0.00 0.00 0.00 76 1023.1
20260507174528 12 329 3.2 9.7 0.00 0.00 0.00 75 1023.3
20260507173019 12 288 0.0 1.6 0.00 0.00 0.00 78 1023.4
20260507171517 11 274 1.6 8.0 0.00 0.00 0.00 78 1023.5
20260507170021 11 308 4.8 9.7 0.00 0.00 0.00 78 1023.6
20260507164515 11 7 3.2 6.4 0.00 0.00 0.00 78 1023.6
20260507163014 11 307 1.6 12.9 0.00 0.00 0.00 80 1023.7
20260507161520 11 22 0.0 6.4 0.00 0.00 0.00 78 1023.7
20260507160013 11 7 1.6 6.4 0.00 0.00 0.00 80 1023.7
20260507154510 11 1 3.2 12.9 0.00 0.00 0.00 81 1023.9
20260507153012 11 14 3.2 9.7 0.00 0.00 0.00 82 1023.7
20260507151510 10 24 0.0 6.4 0.00 0.00 0.00 84 1023.7
20260507150007 10 355 0.0 4.8 0.00 0.00 0.00 84 1023.5
20260507144505 10 311 0.0 4.8 0.00 0.00 0.00 87 1023.6
20260507143006 10 310 0.0 1.6 0.00 0.00 0.00 91 1023.6
20260507141504 9 310 0.0 1.6 0.00 0.00 0.00 92 1023.5
20260507140004 9 310 0.0 1.6 0.00 0.00 0.00 95 1023.5
20260507134507 9 310 0.0 1.6 0.00 0.00 0.00 95 1023.3
20260507133002 9 310 0.0 0.0 0.00 0.00 0.00 95 1023.3
20260507131504 9 310 0.0 0.0 0.00 0.00 0.00 94 1023.3
20260507130104 9 310 0.0 0.0 0.00 0.00 0.00 95 1023.3
20260507124559 9 310 0.0 0.0 0.00 0.00 0.00 95 1023.3
20260507123107 9 310 0.0 0.0 0.00 0.00 0.00 94 1023.4
20260507121601 9 310 0.0 0.0 0.00 0.00 0.00 93 1023.5
20260507120056 9 310 0.0 0.0 0.00 0.00 0.00 92 1023.7
20260507114553 10 310 0.0 0.0 0.00 0.00 0.00 91 1023.7
20260507113051 10 310 0.0 3.2 0.00 0.00 0.00 90 1023.8
20260507111549 10 310 0.0 3.2 0.00 0.00 0.00 88 1023.8
20260507104547 10 305 0.0 6.4 0.00 0.00 0.00 88 1024.0
20260507103052 10 306 0.0 1.6 0.00 0.00 0.00 88 1024.2
20260507101548 10 306 0.0 4.8 0.00 0.00 0.00 88 1024.2
20260507100044 10 306 0.0 3.2 0.00 0.00 0.00 88 1024.3
20260507094542 10 306 0.0 4.8 0.00 0.00 0.00 89 1024.4
20260507093042 10 307 0.0 3.2 0.00 0.00 0.00 91 1024.5
20260507091550 10 307 0.0 0.0 0.00 0.00 0.00 91 1024.5
20260507090043 10 307 0.0 1.6 0.00 0.00 0.00 87 1024.6
20260507084540 10 322 0.0 6.4 0.00 0.00 0.00 86 1024.8
20260507083038 10 304 3.2 4.8 0.00 0.00 0.00 88 1024.9
20260507081534 10 288 0.0 4.8 0.00 0.00 0.00 88 1024.7
20260507080031 10 282 0.0 6.4 0.00 0.00 0.00 90 1024.8
20260507074538 10 307 0.0 3.2 0.00 0.00 0.00 90 1024.8
20260507073021 10 307 0.0 6.4 0.00 0.00 0.00 90 1024.7
20260507071519 10 338 1.6 4.8 0.00 0.00 0.00 91 1024.8
20260507070015 10 315 0.0 4.8 0.00 0.00 0.00 90 1024.7
20260507064513 10 300 0.0 3.2 0.00 0.00 0.00 90 1024.6
20260507063013 11 300 0.0 8.0 0.00 0.00 0.00 89 1024.7
20260507061512 11 310 1.6 6.4 0.00 0.00 0.00 90 1024.7
20260507060010 11 322 0.0 9.7 0.00 0.00 0.00 89 1024.9
20260507054510 11 334 1.6 8.0 0.00 0.00 0.00 91 1024.7
20260507053008 11 297 0.0 3.2 0.00 0.00 0.00 92 1024.8
20260507051507 11 293 0.0 0.0 0.00 0.00 0.00 91 1024.7
20260507050006 11 296 0.0 0.0 0.00 0.00 0.00 92 1024.8
20260507044505 11 300 0.0 3.2 0.00 0.00 0.00 94 1024.8
20260507043004 11 297 1.6 4.8 0.00 0.00 0.00 96 1024.7